| time (UTC) | temp C | wind direction | speed KPH | gust KPH | rain 1hr cm | rain 24hr cm | rain mn cm | humidity % | barometer mb |
| 20260505025319 | 7 | 315 | 1.6 | 3.2 | 0.00 | 0.03 | 0.00 | 85 | 1016.5 |
| 20260505024320 | 7 | 314 | 0.0 | 3.2 | 0.00 | 0.03 | 0.00 | 85 | 1016.4 |
| 20260505023820 | 7 | 297 | 0.0 | 3.2 | 0.00 | 0.03 | 0.00 | 85 | 1016.4 |
| 20260505023319 | 7 | 326 | 1.6 | 3.2 | 0.00 | 0.03 | 0.00 | 85 | 1016.3 |
| 20260505022819 | 7 | 309 | 1.6 | 4.8 | 0.00 | 0.03 | 0.00 | 85 | 1016.4 |
| 20260505022320 | 7 | 314 | 1.6 | 4.8 | 0.00 | 0.03 | 0.00 | 85 | 1016.5 |
| 20260505021819 | 8 | 311 | 3.2 | 4.8 | 0.00 | 0.03 | 0.00 | 85 | 1016.4 |
| 20260505020819 | 8 | 308 | 3.2 | 8.0 | 0.00 | 0.03 | 0.00 | 85 | 1016.4 |
| 20260505020321 | 8 | 311 | 3.2 | 9.7 | 0.00 | 0.03 | 0.00 | 86 | 1016.4 |
| 20260505015320 | 8 | 292 | 1.6 | 3.2 | 0.00 | 0.03 | 0.00 | 87 | 1016.4 |
| 20260505014821 | 8 | 314 | 1.6 | 3.2 | 0.00 | 0.03 | 0.00 | 87 | 1016.4 |
| 20260505013820 | 8 | 304 | 4.8 | 9.7 | 0.00 | 0.03 | 0.00 | 87 | 1016.4 |
| 20260505013320 | 8 | 314 | 6.4 | 11.3 | 0.00 | 0.03 | 0.00 | 87 | 1016.4 |
| 20260505012820 | 8 | 313 | 6.4 | 11.3 | 0.00 | 0.03 | 0.00 | 87 | 1016.3 |
| 20260505012321 | 8 | 311 | 3.2 | 8.0 | 0.00 | 0.03 | 0.00 | 88 | 1016.3 |
| 20260505011821 | 8 | 312 | 3.2 | 8.0 | 0.00 | 0.03 | 0.00 | 88 | 1016.3 |
| 20260505011320 | 8 | 306 | 3.2 | 4.8 | 0.00 | 0.03 | 0.00 | 88 | 1016.4 |
| 20260505010821 | 8 | 306 | 3.2 | 9.7 | 0.00 | 0.03 | 0.00 | 88 | 1016.4 |
| 20260505010322 | 8 | 306 | 4.8 | 9.7 | 0.00 | 0.03 | 0.00 | 88 | 1016.4 |
| 20260505005821 | 8 | 301 | 4.8 | 9.7 | 0.00 | 0.03 | 0.00 | 88 | 1016.4 |
| 20260505005321 | 9 | 301 | 3.2 | 8.0 | 0.00 | 0.03 | 0.00 | 88 | 1016.5 |
| 20260505004821 | 9 | 307 | 4.8 | 9.7 | 0.00 | 0.03 | 0.00 | 88 | 1016.4 |
| 20260505004321 | 9 | 311 | 4.8 | 9.7 | 0.00 | 0.03 | 0.00 | 88 | 1016.5 |
| 20260505003321 | 9 | 313 | 4.8 | 9.7 | 0.00 | 0.03 | 0.00 | 88 | 1016.4 |
| 20260505002822 | 10 | 304 | 3.2 | 8.0 | 0.00 | 0.03 | 0.00 | 88 | 1016.4 |
| 20260505002320 | 10 | 310 | 3.2 | 9.7 | 0.00 | 0.03 | 0.00 | 88 | 1016.5 |
| 20260505001821 | 10 | 305 | 3.2 | 8.0 | 0.00 | 0.03 | 0.00 | 88 | 1016.4 |
| 20260505000821 | 10 | 307 | 3.2 | 8.0 | 0.00 | 0.03 | 0.00 | 88 | 1016.4 |
| 20260505000322 | 10 | 307 | 3.2 | 8.0 | 0.00 | 0.03 | 0.00 | 88 | 1016.4 |
| 20260504235822 | 10 | 311 | 4.8 | 11.3 | 0.00 | 0.03 | 0.00 | 88 | 1016.5 |
| 20260504235321 | 10 | 315 | 4.8 | 9.7 | 0.00 | 0.03 | 0.00 | 88 | 1016.6 |
| 20260504234822 | 10 | 312 | 4.8 | 9.7 | 0.00 | 0.03 | 0.00 | 88 | 1016.6 |
| 20260504233821 | 11 | 311 | 4.8 | 9.7 | 0.00 | 0.03 | 0.00 | 87 | 1016.5 |
| 20260504232321 | 11 | 301 | 1.6 | 3.2 | 0.00 | 0.03 | 0.00 | 86 | 1016.4 |
| 20260504231821 | 11 | 310 | 1.6 | 8.0 | 0.00 | 0.03 | 0.00 | 86 | 1016.5 |
| 20260504231322 | 11 | 312 | 1.6 | 4.8 | 0.00 | 0.03 | 0.00 | 86 | 1016.5 |
| 20260504230322 | 11 | 306 | 1.6 | 8.0 | 0.00 | 0.03 | 0.00 | 86 | 1016.4 |
| 20260504225821 | 11 | 313 | 1.6 | 4.8 | 0.00 | 0.03 | 0.03 | 86 | 1016.4 |
| 20260504224822 | 11 | 307 | 3.2 | 8.0 | 0.00 | 0.03 | 0.03 | 86 | 1016.4 |
| 20260504224322 | 11 | 310 | 3.2 | 8.0 | 0.00 | 0.03 | 0.03 | 86 | 1016.4 |
| 20260504223821 | 11 | 311 | 1.6 | 4.8 | 0.00 | 0.03 | 0.03 | 86 | 1016.5 |
| 20260504223322 | 11 | 310 | 1.6 | 4.8 | 0.00 | 0.03 | 0.03 | 86 | 1016.5 |
| 20260504222825 | 11 | 312 | 4.8 | 9.7 | 0.00 | 0.03 | 0.03 | 86 | 1016.6 |
| 20260504222322 | 11 | 312 | 3.2 | 9.7 | 0.00 | 0.03 | 0.03 | 85 | 1016.6 |
| 20260504221821 | 11 | 312 | 3.2 | 4.8 | 0.00 | 0.03 | 0.03 | 85 | 1016.6 |
| 20260504221323 | 12 | 312 | 3.2 | 8.0 | 0.00 | 0.03 | 0.03 | 85 | 1016.6 |
| 20260504220821 | 12 | 310 | 3.2 | 8.0 | 0.00 | 0.03 | 0.03 | 85 | 1016.7 |
| 20260504220322 | 12 | 312 | 3.2 | 8.0 | 0.00 | 0.03 | 0.03 | 85 | 1016.6 |
| 20260504215823 | 12 | 310 | 3.2 | 4.8 | 0.00 | 0.03 | 0.03 | 84 | 1016.6 |
| 20260504215321 | 12 | 318 | 1.6 | 3.2 | 0.00 | 0.03 | 0.03 | 84 | 1016.6 |
| 20260504214822 | 12 | 313 | 1.6 | 4.8 | 0.00 | 0.03 | 0.03 | 84 | 1016.6 |
| 20260504214322 | 12 | 316 | 1.6 | 4.8 | 0.00 | 0.03 | 0.03 | 84 | 1016.6 |
| 20260504213823 | 12 | 318 | 1.6 | 4.8 | 0.00 | 0.03 | 0.03 | 84 | 1016.6 |
| 20260504213322 | 12 | 314 | 1.6 | 3.2 | 0.00 | 0.03 | 0.03 | 84 | 1016.6 |
| 20260504212823 | 12 | 315 | 0.0 | 3.2 | 0.00 | 0.03 | 0.03 | 84 | 1016.6 |
| 20260504212322 | 12 | 317 | 1.6 | 3.2 | 0.00 | 0.03 | 0.03 | 85 | 1016.6 |
| 20260504211822 | 12 | 324 | 1.6 | 4.8 | 0.00 | 0.03 | 0.03 | 85 | 1016.6 |
| 20260504210823 | 12 | 311 | 1.6 | 3.2 | 0.00 | 0.03 | 0.03 | 85 | 1016.5 |
| 20260504210322 | 12 | 278 | 0.0 | 1.6 | 0.00 | 0.03 | 0.03 | 86 | 1016.6 |
| 20260504205824 | 12 | 277 | 0.0 | 1.6 | 0.00 | 0.03 | 0.03 | 86 | 1016.5 |
| 20260504205323 | 12 | 276 | 0.0 | 3.2 | 0.00 | 0.03 | 0.03 | 85 | 1016.5 |
| 20260504204822 | 12 | 308 | 0.0 | 0.0 | 0.00 | 0.03 | 0.03 | 85 | 1016.4 |
| 20260504204323 | 12 | 308 | 0.0 | 0.0 | 0.00 | 0.03 | 0.03 | 85 | 1016.4 |
| 20260504203322 | 12 | 308 | 0.0 | 0.0 | 0.00 | 0.03 | 0.03 | 85 | 1016.4 |
| 20260504202323 | 12 | 306 | 0.0 | 3.2 | 0.00 | 0.03 | 0.03 | 85 | 1016.3 |
| 20260504201823 | 12 | 299 | 0.0 | 1.6 | 0.00 | 0.03 | 0.03 | 85 | 1016.2 |
| 20260504201323 | 12 | 306 | 0.0 | 0.0 | 0.00 | 0.03 | 0.03 | 85 | 1016.2 |
| 20260504200822 | 12 | 284 | 0.0 | 1.6 | 0.00 | 0.03 | 0.03 | 85 | 1016.2 |
| 20260504195824 | 12 | 304 | 0.0 | 0.0 | 0.00 | 0.03 | 0.03 | 85 | 1016.2 |
| 20260504195324 | 12 | 308 | 0.0 | 1.6 | 0.00 | 0.03 | 0.03 | 85 | 1016.2 |
| 20260504194325 | 12 | 311 | 0.0 | 0.0 | 0.00 | 0.03 | 0.03 | 86 | 1016.2 |
| 20260504193823 | 12 | 311 | 0.0 | 0.0 | 0.00 | 0.03 | 0.03 | 86 | 1016.2 |
| 20260504193324 | 12 | 311 | 0.0 | 0.0 | 0.00 | 0.03 | 0.03 | 86 | 1016.2 |
| 20260504192824 | 12 | 311 | 0.0 | 0.0 | 0.00 | 0.03 | 0.03 | 86 | 1016.1 |
| 20260504191825 | 12 | 305 | 0.0 | 0.0 | 0.00 | 0.03 | 0.03 | 86 | 1016.0 |
| 20260504191323 | 12 | 305 | 0.0 | 0.0 | 0.00 | 0.03 | 0.03 | 86 | 1016.0 |
| 20260504190823 | 12 | 305 | 0.0 | 0.0 | 0.00 | 0.03 | 0.03 | 86 | 1016.0 |
| 20260504190325 | 12 | 305 | 0.0 | 0.0 | 0.00 | 0.03 | 0.03 | 86 | 1016.0 |
| 20260504185823 | 12 | 304 | 0.0 | 0.0 | 0.00 | 0.03 | 0.03 | 86 | 1016.0 |
| 20260504185324 | 12 | 306 | 0.0 | 0.0 | 0.00 | 0.03 | 0.03 | 86 | 1016.0 |
| 20260504184825 | 12 | 308 | 0.0 | 0.0 | 0.00 | 0.03 | 0.03 | 86 | 1016.0 |
| 20260504184323 | 12 | 304 | 0.0 | 3.2 | 0.00 | 0.03 | 0.03 | 86 | 1016.0 |
| 20260504183823 | 12 | 306 | 1.6 | 3.2 | 0.00 | 0.03 | 0.03 | 86 | 1016.0 |
| 20260504183323 | 12 | 304 | 1.6 | 3.2 | 0.00 | 0.03 | 0.03 | 86 | 1016.0 |
| 20260504182824 | 12 | 310 | 0.0 | 3.2 | 0.03 | 0.03 | 0.03 | 86 | 1016.0 |
| 20260504182323 | 12 | 303 | 0.0 | 3.2 | 0.03 | 0.03 | 0.03 | 86 | 1015.9 |
| 20260504181823 | 12 | 295 | 0.0 | 1.6 | 0.03 | 0.03 | 0.03 | 86 | 1015.9 |
| 20260504181324 | 12 | 265 | 0.0 | 1.6 | 0.03 | 0.03 | 0.03 | 86 | 1015.9 |
| 20260504180825 | 12 | 119 | 0.0 | 1.6 | 0.03 | 0.03 | 0.03 | 86 | 1015.9 |
| 20260504180323 | 12 | 119 | 0.0 | 0.0 | 0.03 | 0.03 | 0.03 | 86 | 1015.9 |
| 20260504175824 | 12 | 119 | 0.0 | 1.6 | 0.03 | 0.03 | 0.03 | 87 | 1015.8 |
| 20260504175326 | 12 | 100 | 0.0 | 0.0 | 0.03 | 0.03 | 0.03 | 87 | 1015.8 |
| 20260504174824 | 12 | 273 | 0.0 | 0.0 | 0.03 | 0.03 | 0.03 | 87 | 1015.9 |
| 20260504174323 | 12 | 294 | 0.0 | 0.0 | 0.03 | 0.03 | 0.03 | 87 | 1016.0 |
| 20260504173826 | 12 | 298 | 0.0 | 3.2 | 0.03 | 0.03 | 0.03 | 87 | 1015.9 |
| 20260504173323 | 12 | 303 | 1.6 | 3.2 | 0.03 | 0.03 | 0.03 | 87 | 1016.0 |
| 20260504172824 | 12 | 300 | 1.6 | 4.8 | 0.00 | 0.00 | 0.00 | 86 | 1016.0 |
| 20260504172323 | 13 | 303 | 0.0 | 3.2 | 0.00 | 0.00 | 0.00 | 84 | 1016.0 |
| 20260504171824 | 13 | 295 | 0.0 | 4.8 | 0.00 | 0.00 | 0.00 | 83 | 1016.0 |
| 20260504171324 | 13 | 240 | 0.0 | 4.8 | 0.00 | 0.00 | 0.00 | 82 | 1016.0 |
| 20260504170326 | 13 | 264 | 0.0 | 1.6 | 0.00 | 0.00 | 0.00 | 81 | 1015.9 |
| 20260504160325 | 14 | 109 | 1.6 | 3.2 | 0.00 | 0.00 | 0.00 | 77 | 1015.8 |
| 20260504150827 | 14 | 112 | 0.0 | 4.8 | 0.00 | 0.00 | 0.00 | 75 | 1016.0 |
| 20260504150325 | 15 | 184 | 0.0 | 3.2 | 0.00 | 0.00 | 0.00 | 75 | 1016.0 |
| 20260504141325 | 15 | 101 | 1.6 | 3.2 | 0.00 | 0.00 | 0.00 | 75 | 1015.9 |
| 20260504140326 | 15 | 113 | 0.0 | 4.8 | 0.00 | 0.00 | 0.00 | 75 | 1015.9 |
| 20260504110327 | 15 | 309 | 3.2 | 8.0 | 0.00 | 0.00 | 0.00 | 77 | 1015.8 |
| 20260504100328 | 14 | 206 | 1.6 | 4.8 | 0.00 | 0.00 | 0.00 | 76 | 1015.5 |
| 20260504081828 | 13 | 292 | 3.2 | 12.9 | 0.00 | 0.00 | 0.00 | 80 | 1014.9 |
| 20260504080829 | 13 | 104 | 1.6 | 4.8 | 0.00 | 0.00 | 0.00 | 79 | 1014.8 |
| 20260504080332 | 13 | 156 | 3.2 | 9.7 | 0.00 | 0.00 | 0.00 | 81 | 1014.7 |
| 20260504070329 | 11 | 308 | 3.2 | 8.0 | 0.00 | 0.05 | 0.00 | 87 | 1014.3 |
| 20260504050330 | 9 | 302 | 1.6 | 4.8 | 0.00 | 0.05 | 0.00 | 93 | 1013.6 |
| 20260504045831 | 9 | 312 | 1.6 | 4.8 | 0.00 | 0.05 | 0.00 | 93 | 1013.6 |
| 20260504045330 | 9 | 306 | 1.6 | 4.8 | 0.00 | 0.05 | 0.00 | 93 | 1013.6 |
| 20260504044830 | 9 | 307 | 1.6 | 4.8 | 0.00 | 0.05 | 0.00 | 93 | 1013.6 |
| 20260504043831 | 9 | 312 | 1.6 | 3.2 | 0.00 | 0.05 | 0.00 | 93 | 1013.6 |
| 20260504043330 | 8 | 311 | 3.2 | 8.0 | 0.00 | 0.05 | 0.00 | 92 | 1013.6 |
| 20260504042830 | 9 | 312 | 3.2 | 4.8 | 0.00 | 0.05 | 0.00 | 92 | 1013.6 |
| 20260504042331 | 9 | 311 | 3.2 | 8.0 | 0.00 | 0.05 | 0.00 | 92 | 1013.6 |
| 20260504040831 | 9 | 304 | 8.0 | 11.3 | 0.00 | 0.05 | 0.00 | 92 | 1013.6 |
| 20260504040331 | 9 | 317 | 4.8 | 9.7 | 0.00 | 0.05 | 0.00 | 92 | 1013.6 |
| 20260504035830 | 9 | 319 | 6.4 | 9.7 | 0.00 | 0.05 | 0.00 | 92 | 1013.6 |
| 20260504035331 | 9 | 311 | 4.8 | 9.7 | 0.00 | 0.05 | 0.00 | 92 | 1013.6 |
| 20260504034331 | 9 | 311 | 3.2 | 9.7 | 0.00 | 0.05 | 0.00 | 91 | 1013.5 |
| 20260504033831 | 9 | 315 | 4.8 | 9.7 | 0.00 | 0.05 | 0.00 | 91 | 1013.5 |
| 20260504033331 | 9 | 303 | 4.8 | 9.7 | 0.00 | 0.05 | 0.00 | 91 | 1013.4 |
| 20260504032832 | 9 | 307 | 3.2 | 8.0 | 0.00 | 0.05 | 0.00 | 91 | 1013.3 |
| 20260504032330 | 9 | 308 | 1.6 | 4.8 | 0.00 | 0.05 | 0.00 | 91 | 1013.3 |
| 20260504031831 | 9 | 319 | 0.0 | 3.2 | 0.00 | 0.05 | 0.00 | 91 | 1013.3 |
| 20260504031331 | 9 | 311 | 1.6 | 3.2 | 0.00 | 0.05 | 0.00 | 91 | 1013.2 |
| 20260504030831 | 9 | 313 | 3.2 | 8.0 | 0.00 | 0.05 | 0.00 | 91 | 1013.2 |
| 20260504030331 | 8 | 312 | 3.2 | 9.7 | 0.00 | 0.05 | 0.00 | 91 | 1013.2 |
| 20260504025831 | 8 | 308 | 3.2 | 8.0 | 0.00 | 0.05 | 0.00 | 91 | 1013.2 |